Location: Beadle
(51.4667°N, 109.0000°W)
Time: 17:27:28
(UTC+00:00)

O/OREOS (USA 219) - Pass Details

Date: 03 July 2022
Orbit: 621 x 646 km, 72.0° (Epoch: 22 May)

Event Time Altitude Azimuth Distance (km) Brightness Sun altitude
Rises 06:16:19 0° 334° (NNW) 2,965 ? -14.3°
Reaches altitude 10° 06:18:42 10° 341° (NNW) 2,054 ? -14.4°
Maximum altitude 06:23:08 45° 54° (NE) 891 ? -14.5°
Enters shadow 06:26:46 15° 124° (ESE) 1,756 ? -14.7°
